Home > Weather > Tiraspol > Past weeks

Flag for Moldova Past Weather in Tiraspol, Moldova — Yesterday and Last 2 Weeks

Now
84 °F

Passing clouds.


Feels Like: 82 °F
Forecast: 65 / 87 °F
Wind: 13 mph from Northwest

Location: Chisinau International Airport

Current Time: Jul 23, 2016 at 5:59:15 PM

Latest Report: Jul 23, 2016 at 5:30 PM


Visibility: N/A

Pressure: 29.95 "Hg

Humidity: 31%

Dew Point: 50 °F

Location of TiraspolLocation

Past Weather in Tiraspol — Graph

°F

Tiraspol Temperature Yesterday

Maximum temperature yesterday: 84 °F (at 5:00 PM)
Minimum temperature yesterday: 55 °F (at 4:00 AM)
Average temperature yesterday: 72 °F

High & Low Weather Summary for the Past Weeks

 TemperatureHumidityPressure
High95 °F (Jul 17, 3:30 PM)94% (Jul 10, 2:30 AM)30.09 "Hg (Jul 10, 2:30 AM)
Low54 °F (Jul 21, 5:30 AM)26% (Jul 22, 3:00 PM)29.71 "Hg (Jul 17, 4:30 PM)
Average73 °F59%29.91 "Hg
* Reported Jul 8 5:00 PM — Jul 23 5:00 PM, Tiraspol, Weather by CustomWeather, © 2016

Note: Actual official high and low records may vary slightly from our data, if they occured in-between our weather recording intervals... More about our weather records

Advertising

Tiraspol Weather History for the Previous 24 Hours

Scroll right to see more
 ConditionsComfort  
Time TempWeatherWind HumidityBarometerVisibility
5:00 PM
Sat, Jul 23
86 °FSunny.15 mph29%29.95 "Hg10 mi
4:30 PM84 °FPassing clouds.13 mph33%29.95 "HgN/A
4:00 PM84 °FSunny.16 mph33%29.95 "Hg10 mi
3:30 PM84 °FSunny.10 mph33%29.95 "Hg10 mi
3:00 PM84 °FPassing clouds.14 mph35%29.95 "HgN/A
2:30 PM84 °FPassing clouds.15 mph33%29.98 "HgN/A
2:00 PM84 °FPassing clouds.14 mph35%29.98 "HgN/A
1:30 PM82 °FPassing clouds.14 mph40%29.98 "HgN/A
1:00 PM82 °FScattered clouds.12 mph37%29.98 "HgN/A
12:30 PM82 °FPassing clouds.8 mph37%29.98 "HgN/A
12:00 PM81 °FPassing clouds.7 mph42%29.98 "HgN/A
11:30 AM79 °FPassing clouds.6 mph48%29.98 "HgN/A
11:00 AM77 °FPassing clouds.6 mph47%29.98 "HgN/A
10:30 AM75 °FPassing clouds.8 mph50%29.98 "HgN/A
10:00 AM75 °FPassing clouds.6 mph54%29.98 "HgN/A
9:30 AM73 °FPassing clouds.6 mph61%30.01 "HgN/A
9:00 AM70 °FSunny.2 mph73%30.01 "Hg10 mi
8:30 AM70 °FSunny.No wind73%30.01 "Hg10 mi
8:00 AM68 °FSunny.2 mph78%30.01 "Hg10 mi
7:30 AM64 °FSunny.2 mph83%30.01 "Hg10 mi
7:00 AM64 °FSunny.2 mph83%29.98 "Hg10 mi
6:30 AM64 °FClear.No wind83%29.98 "Hg10 mi
6:00 AM59 °FClear.No wind88%29.98 "Hg10 mi
5:30 AM59 °FClear.2 mph88%30.01 "Hg10 mi
5:00 AM61 °FClear.1 mph88%29.98 "Hg10 mi
4:30 AM59 °FClear.2 mph94%30.01 "Hg10 mi
4:00 AM61 °FClear.No wind88%30.01 "Hg10 mi
3:30 AM63 °FClear.No wind88%30.01 "Hg10 mi
3:00 AM63 °FPassing clouds.3 mph88%30.01 "HgN/A
2:30 AM61 °FClear.3 mph88%30.01 "Hg10 mi
2:00 AM63 °FClear.2 mph88%30.01 "Hg10 mi
1:30 AM64 °FClear.3 mph78%30.01 "Hg10 mi
1:00 AM66 °FPassing clouds.5 mph78%30.01 "HgN/A
12:30 AM64 °FClear.5 mph78%29.98 "Hg10 mi
12:00 AM66 °FPassing clouds.3 mph73%29.98 "HgN/A
11:30 PM
Fri, Jul 22
68 °FPassing clouds.3 mph69%29.98 "HgN/A
11:00 PM70 °FClear.2 mph69%29.98 "Hg10 mi
10:30 PM70 °FPassing clouds.5 mph69%29.98 "HgN/A
10:00 PM73 °FClear.7 mph61%29.98 "Hg10 mi
9:30 PM73 °FPassing clouds.5 mph61%29.95 "HgN/A
9:00 PM73 °FPassing clouds.9 mph44%29.92 "HgN/A
8:30 PM77 °FSunny.7 mph36%29.92 "Hg10 mi
8:00 PM79 °FSunny.8 mph32%29.92 "Hg10 mi
7:30 PM81 °FSunny.13 mph28%29.92 "Hg10 mi
7:00 PM82 °FSunny.13 mph28%29.92 "Hg10 mi
6:30 PM82 °FSunny.15 mph26%29.92 "Hg10 mi
6:00 PM82 °FSunny.17 mph28%29.92 "Hg10 mi
5:30 PM82 °FPassing clouds.14 mph30%29.92 "HgN/A
5:00 PM84 °FSunny.16 mph29%29.92 "Hg10 mi
Weather by CustomWeather, © 2016

See weather overviewHow to use our weather pages